Flag for Germany Weather past 2 weeks in Mühlhausen/Thüringen, Thuringia, Germany

Now
44 °F

Overcast.


Feels Like: 43 °F
Forecast: 42 / 54 °F
Wind: 3 mph from South

Location: Erfurt-Bindersleben

Current Time: Oct 24, 2014 at 11:29:15 PM

Latest Report: Oct 24, 2014 at 11:00 PM


Visibility: 22 mi

Pressure: 30.16 "Hg

Humidity: 88%

Dew point: 41 °F

Location of Mühlhausen/ThüringenLocation

Historic Weather in Mühlhausen/Thüringen — Graph

°F

Mühlhausen/Thüringen temperature yesterday

Maximum temperature yesterday: 53 °F (at 4:00 PM)
Minimum temperature yesterday: 42 °F (at 11:00 PM)
Average temperature yesterday: 47 °F

Past Weeks' High & Low Weather Summary

 TemperatureHumidityPressure
High67 °F (Oct 19, 2:00 PM)100% (Oct 11, 5:00 AM)30.27 "Hg (Oct 11, 5:00 AM)
Low37 °F (Oct 24, 4:00 AM)58% (Oct 15, 3:00 PM)29.47 "Hg (Oct 21, 8:00 PM)
Average54 °F86%29.94 "Hg
* Reported Oct 9 10:00 PM — Oct 24 10:00 PM, Mühlhausen/Thüringen, Weather by CustomWeather, © 2014

Note: Actual official high and low records may vary slightly from our data, if they occured in-between our weather recording intervals... More about our weather records

Advertising

Mühlhausen/Thüringen weather history for previous 24 hours

 ConditionsComfort  
Time TempWeatherWind HumidityBarometerVisibility
10:00 PM
Oct 24
44 °FPassing clouds.3 mph87%30.16 "Hg22 mi
9:00 PM46 °FPassing clouds.3 mph85%30.15 "Hg25 mi
8:00 PM47 °FPassing clouds.3 mph81%30.15 "Hg31 mi
7:00 PM50 °FPassing clouds.2 mph74%30.14 "Hg31 mi
6:00 PM53 °FScattered clouds.2 mph66%30.14 "Hg31 mi
5:00 PM56 °FScattered clouds.2 mph61%30.15 "Hg31 mi
4:00 PM57 °FScattered clouds.3 mph61%30.16 "Hg31 mi
3:00 PM56 °FScattered clouds.2 mph62%30.17 "Hg31 mi
2:00 PM57 °FScattered clouds.2 mph67%30.19 "Hg31 mi
1:00 PM54 °FScattered clouds.1 mph64%30.21 "Hg25 mi
12:00 PM52 °FPassing clouds.3 mph75%30.23 "Hg22 mi
11:00 AM49 °FPassing clouds.3 mph82%30.24 "Hg25 mi
10:00 AM46 °FPassing clouds.5 mph86%30.25 "Hg25 mi
9:00 AM43 °FPassing clouds.5 mph90%30.25 "Hg25 mi
8:00 AM41 °FPassing clouds.5 mph94%30.24 "Hg25 mi
7:00 AM41 °FPassing clouds.3 mph93%30.25 "Hg16 mi
6:00 AM40 °FOvercast.3 mph95%30.25 "Hg12 mi
5:00 AM40 °FPassing clouds.3 mph98%30.25 "Hg12 mi
4:00 AM37 °FPassing clouds.2 mph97%30.27 "Hg11 mi
3:00 AM38 °FPassing clouds.3 mph98%30.27 "Hg11 mi
2:00 AM41 °FClear.3 mph95%30.27 "Hg12 mi
1:00 AM41 °FClear.2 mph95%30.27 "Hg12 mi
12:00 AM41 °FPassing clouds.2 mph94%30.27 "Hg16 mi
11:00 PM
Oct 23
42 °FPassing clouds.2 mph93%30.27 "Hg16 mi
Weather by CustomWeather, © 2014

See weather overviewHow to use our weather pages